Regional Weather Roundup
Issued by NWS Cleveland, OH

Home | Current Version | Previous Version | Graphics & Text | Print | Product List | Glossary On
Versions: 1 2 3 4 5 6 7 8 9 10 11 12 13 14 15 16 17 18 19 20 21 22 23 24 25 26 27 28 29 30 31 32 33 34 35 36 37 38 39 40 41 42 43 44 45 46 47 48 49 50
000
ASUS41 KCLE 161110
RWRCLE
OHIO REGIONAL WEATHER ROUNDUP
NATIONAL WEATHER SERVICE WILMINGTON, OH
700 AM EDT TUE SEP 16 2014

NOTE: "FAIR" INDICATES FEW OR NO CLOUDS BELOW 12,000 FEET WITH NO
SIGNIFICANT WEATHER AND/OR OBSTRUCTIONS TO VISIBILITY.

OHZ001>008-015>018-024>027-034-035-043-044-161200-
   NORTHWEST OHIO

CITY           SKY/WX    TMP DP  RH WIND       PRES   REMARKS
DEFIANCE       CLEAR     51  48  89 NE5       30.15S
FINDLAY        CLOUDY    54  51  90 NW6       30.15R
TOLEDO EXPRESS PTCLDY    51  50  96 NW8       30.15R
TOLEDO METCALF PTCLDY    53  49  86 NW6       30.15R
LIMA           CLOUDY    54  51  90 N8        30.15R FOG
$$

OHZ009>014-019>023-028>033-038-089-161200-
   NORTHEAST OHIO

CITY           SKY/WX    TMP DP  RH WIND       PRES   REMARKS
CLE-HOPKINS    MOCLDY    53  52  96 SW6       30.12R FOG
CLE-LAKEFRONT  CLOUDY    59  52  77 N9        30.09R
CUY CO. ARPT   LGT RAIN  57  55  94 SW5       30.11
LORAIN-ELYRIA  MOCLDY    56  52  86 W3        30.12R FOG
ASHTABULA      CLOUDY    53  52  96 W3        30.10R
AKRON-CANTON   CLOUDY    54  50  86 CALM      30.10S FOG
WOOSTER        CLOUDY    54  51  90 NW7       30.12R FOG
MANSFIELD      CLOUDY    51  51 100 NW9       30.13R FOG
YOUNGSTOWN     CLOUDY    51  51 100 VRB3      30.10R FOG
$$

OHZ042-051>053-060>062-070>072-077>081-161200-
  SOUTHWEST OHIO

CITY           SKY/WX    TMP DP  RH WIND       PRES   REMARKS
CINC-COVINGTON CLOUDY    58  55  90 N8        30.12R
CINC-LUNKEN    CLOUDY    59  57  93 N5        30.14R
HAMILTON       CLOUDY    58  56  93 N5        30.15R
DAYTON         CLOUDY    53  51  93 N8        30.16R
WRIGHT-PAT AFB CLOUDY    54  51  90 N7        30.15R
DAYTON GENERAL CLOUDY    55  53  93 N10       30.13R
WILMINGTON     CLOUDY    55  53  93 N6        30.13R
$$

OHZ036-037-039>041-045>050-054>059-063>069-073>076-082>088-161200-
  CENTRAL AND SOUTHEAST OHIO

CITY           SKY/WX    TMP DP  RH WIND       PRES   REMARKS
COLUMBUS       PTCLDY    56  50  80 N7        30.12R
OSU AIRPORT    CLOUDY    53  50  89 N8        30.13R
BOLTON FIELD   PTCLDY    53  50  89 N7        30.13R
RICKENBACK AFB CLOUDY    55  50  86 N5        30.12R
NEWARK         PTCLDY    53  50  89 N3        30.12R
MARION         CLOUDY    52  51  97 N6        30.14R FOG
LANCASTER      CLOUDY    55  52  89 NW5       30.12R
ZANESVILLE     CLOUDY    56  53  90 W3        30.11R
NEW PHILLY     PTCLDY    52  51  97 N5        30.12R
$$



USA.gov is the U.S. government's official web portal to all federal, state and local government web resources and services.